Location: ??????
(36.0418°N, 43.6351°E)
Time: 02:52:53
(UTC+00:00)

NOSS 3-2 (A) - Pass Details

Date: 07 March 2021
Orbit: 779 x 1428 km, 63.4° (Epoch: 18 April)

Event Time Altitude Azimuth Distance (km) Brightness Sun altitude
Rises 01:29:09 0° 329° (NNW) 4,048 6.6 -24.7°
Reaches altitude 10° 01:31:45 10° 332° (NNW) 3,168 6.0 -24.2°
Maximum altitude 01:39:35 74° 58° (ENE) 1,385 4.3 -22.6°
Drops below altitude 10° 01:48:16 10° 142° (SE) 3,500 6.7 -20.9°
Sets 01:51:16 0° 144° (SE) 4,493 7.3 -20.3°
